Other Surface Observations
Issued by NWS

Home | Current Version | Previous Version | Text Only | Print | Product List | Glossary On
Versions: 1 2 3 4 5 6 7 8 9 10 11 12 13 14 15 16 17 18 19 20 21 22 23 24 25 26 27 28 29 30 31 32 33 34 35 36 37 38 39 40 41 42 43 44 45 46 47 48 49 50
000
SXUS52 KTAE 021218
OSOTAE
OSOTAE
North Florida/South Alabama/Southwest Georgia Weather Roundup
National Weather Service Tallahassee Florida
800 AM EDT WED SEP 02 2015

Note: "fair" indicates few or no clouds below 12,000 feet with no
significant weather and/or obstructions to visibility.

!FLZ017-115-028-034-025-021300
...North Florida...

CITY           SKY/WX    TMP DP  RH WIND       PRES   REMARKS
TALLAHASSEE    CLOUDY    78  74  87 NE3       30.07R
APALACHICOLA   CLEAR     74  74 100 CALM      30.06R
PERRY          DRIZZLE   77  75  95 CALM      30.06R
CROSS CITY       N/A     77  77 100 SE3       30.06R
JACKSONVILLE   CLOUDY    77  76  96 CALM      30.08R
$$

!FLZ112-006-005-002-011-021300
...Florida Panhandle...

CITY           SKY/WX    TMP DP  RH WIND       PRES   REMARKS
MARIANNA       PTCLDY    74  73  97 CALM      30.07R
BONIFAY        NOT AVBL
PANAMA CITY NW FAIR      74  72  93 NW5       30.05S
TYNDALL AFB    PTCLDY    75  74  97 CALM      30.06R
TYND DRONE APT FAIR      74  74 100 CALM      30.06R
DE FUNIAK SPR  FAIR      74  71  89 CALM      30.08R
EGLIN AFB      MOCLDY    74  70  88 N2        30.06S
DESTIN         PTCLDY    78  72  81 CALM      30.06R
HURLBURT       CLEAR     73  70  91 N3        30.05R
CRESTVIEW      PTCLDY    70  69  97 CALM      30.09R FOG
PENSACOLA      CLEAR     73  70  90 CALM      30.07R
$$

!ALZ063-066-021300
...South Alabama...

CITY           SKY/WX    TMP DP  RH WIND       PRES   REMARKS
DOTHAN         CLEAR     73  72  96 NE5       30.12R
OZARK CAIRNS   PTCLDY    72  71  96 NE3       30.08R
FT RUCKER HELI CLEAR     70  68  93 CALM      30.07R FOG
RUCKER HELI 3  FAIR      71  70  97 NW2       30.09R
RUCKER HELI 2  FAIR      70  70 100 CALM      30.08R
FLORALA APT    PTCLDY    72  70  93 CALM      30.10R
ANDALUSIA      PTCLDY    75  70  84 CALM      30.08R HAZE
TROY           CLEAR     69  68  96 CALM      30.10R
EUFALA         FAIR      74  73  97 CALM      30.09R
MOBILE         MOCLDY    72  71  97 CALM      30.09R FOG
$$

!GAZ120>161-021300
...Southwest and South Central Georgia...

CITY           SKY/WX    TMP DP  RH WIND       PRES   REMARKS
THOMASVILLE    CLOUDY    73  73 100 CALM      30.10R
BAINBRIDGE     PTCLDY    77  73  88 NE3       30.08R
MOODY AFB      LGT RAIN  73  72  94 E6        30.08  FOG
VALDOSTA       RAIN      75  74  96 SE6       30.08R
MOULTRIE       CLOUDY    75  73  94 CALM      30.10R FOG
BLAKELY        PTCLDY    73  72  94 CALM      30.09R
ALBANY         CLOUDY    75  72  90 E3        30.11R
TIFTON         CLOUDY    75  75  99 CALM      30.10R
FITZGERALD     CLOUDY    77  76  96 CALM      30.13R FOG
CORDELE        CLOUDY    75  74  98 CALM      30.12R FOG
AMERICUS       FAIR      70  70 100 CALM      30.12S FOG
HOMERVILLE     RAIN      79  79 100 CALM      30.10R
$$

!GMZ750-755-770-775-021300
...Coastal and Buoy Obs...

STATION/POSITION TIME  TEMP    WIND        PRES    VSBY  WAVE
                       AIR SEA DIR/SP/G                  HT/PER
                 (UTC) (F)     (DEG/KT/KT) (MB)    (MI)  (FT/S)
KEATON BEACH     1200   79     230/  7/  8 1017.9R
CEDAR KEY        1200   84     230/  8/ 11 1018.6R
C TOWER          1200   80     340/ 10/ 11 1017.9R
APALACHICOLA BUO 1150   84 85  270/  8/ 10 1018.0R         2/ 5
PANAMA CITY BUOY 1150   83 86  360/  2/  2 1018.2R         1/ 6
MOBILE BUOY      1150   83 85   90/  4/  6 1018.2R         1/ 6
ORANGE BCH AL BU 1150   82 85  360/  6/  8 1017.5R         1/ 5
$$



USA.gov is the U.S. government's official web portal to all federal, state and local government web resources and services.